RH
48 47 45 48 59 63 64 59 36 30 26 21 17 19 20 24 25 43 33 28 26 20 14 9 10 14 14 14 14 15 15 15 15 15 14 14 14 15 21 18 15 15 15 15 15 15 15 15 15
46 46 45 47 58 67 65 49 32 25 23 16 16 18 18 19 19 21 22 22 18 14 12 10 8 10 6 10 14 11 15 14 14 14 14 14 14 16 16 14 14 14 14 14 14 14 14 14 14
46 45 42 47 56 60 58 42 27 21 16 15 16 16 16 17 19 19 18 16 13 10 9 7 5 4 4 5 7 14 14 15 13 12 15 14 15 15 14 14 14 14 14 13 13 13 13 13 13
47 47 45 47 64 53 37 27 21 16 15 14 15 16 14 18 18 15 15 12 10 11 10 5 4 4 4 5 7 14 10 7 5 5 6 9 15 15 15 15 14 14 14 14 14 14 6 8 9
43 40 42 48 44 34 28 25 17 18 14 13 13 17 15 16 14 13 12 10 9 11 10 5 4 4 5 6 9 10 5 4 5 5 5 6 9 8 9 10 10 8 7 9 9 7 6 6 6
40 37 46 62 52 36 24 20 16 16 13 12 14 13 14 13 13 11 9 8 9 9 12 8 4 4 5 5 6 6 5 5 5 5 5 5 5 5 6 7 7 7 7 8 8 8 8 8 8
35 37 44 42 38 25 21 17 17 15 13 13 12 16 15 12 12 10 9 8 8 8 11 8 5 4 5 5 5 5 5 5 6 6 5 6 6 6 6 7 7 7 7 8 8 9 9 9 10
21 22 21 23 28 28 20 15 14 13 15 13 11 16 14 12 11 9 8 8 7 6 8 8 8 6 7 6 5 5 5 5 6 6 6 6 6 7 7 8 8 8 8 9 9 9 10 11 11
13 28 28 23 20 25 19 14 13 12 11 12 11 10 10 10 10 9 8 7 6 5 6 6 5 7 9 9 6 5 5 5 6 6 6 7 10 7 7 8 8 8 9 9 9 10 11 12 12
18 28 25 19 19 19 14 13 13 11 11 11 10 10 10 10 9 8 7 6 6 5 6 5 5 4 5 8 5 5 5 5 6 6 6 6 7 8 8 8 8 8 9 9 10 11 12 12 11
14 21 17 12 12 12 13 11 12 10 12 12 11 10 9 9 9 8 7 6 6 6 5 5 3 4 4 6 5 5 5 5 5 6 6 6 7 8 8 9 9 9 9 10 10 10 11 12 12
14 10 10 11 9 9 9 11 11 10 12 12 11 9 9 8 8 8 7 7 6 6 6 5 3 3 4 5 5 6 4 5 5 6 6 6 7 7 8 8 9 9 9 9 10 10 11 13 12
12 10 9 9 8 8 9 9 9 10 10 9 9 8 8 8 8 8 8 7 7 6 5 5 3 2 3 4 4 4 4 5 5 6 6 7 7 7 8 8 9 9 9 10 10 11 11 13 14
13 12 11 10 10 9 9 9 10 8 8 7 7 7 7 7 7 8 8 7 6 6 5 4 3 2 3 3 3 3 3 4 5 5 6 6 7 7 8 9 9 9 9 10 10 11 12 13 14
13 14 15 13 11 10 8 12 8 7 6 7 7 7 7 7 7 7 7 6 5 5 5 5 4 3 3 3 4 3 3 3 4 5 6 6 7 7 8 9 9 9 10 11 11 11 12 13 15
13 16 17 15 12 11 9 10 10 7 6 7 7 7 7 7 7 7 6 6 5 5 5 5 5 5 4 3 4 4 4 3 3 4 5 6 7 7 8 8 9 9 9 10 11 12 13 14 14
14 12 11 14 12 12 11 11 10 9 8 7 7 6 6 7 7 6 6 5 5 5 6 6 6 5 5 4 4 4 4 4 4 4 5 6 7 7 8 8 9 9 9 10 11 12 12 14 14
13 9 9 10 12 10 11 11 11 11 10 9 8 7 7 6 6 6 6 6 6 6 6 6 6 6 5 5 5 5 5 5 5 4 5 6 6 7 8 8 9 9 10 10 11 12 13 13 14
9 8 10 10 10 9 9 9 9 9 10 10 9 8 8 8 8 8 8 7 6 6 6 7 7 7 7 7 6 7 6 6 6 6 5 5 5 6 8 9 9 10 11 11 12 13 14 14 16
11 11 11 10 9 9 9 8 8 8 8 9 9 9 9 9 8 8 8 8 7 7 7 8 8 8 8 8 8 8 8 8 8 8 7 7 6 6 6 8 9 10 11 12 13 15 15 16 17
12 12 12 11 11 10 11 11 9 8 7 7 8 9 8 9 8 8 8 8 8 8 8 7 7 8 9 10 10 10 10 10 10 9 8 8 8 7 7 7 7 9 11 12 14 15 16 17 18
14 14 13 14 15 15 12 15 11 10 9 8 7 8 8 8 8 8 8 8 8 8 8 8 8 8 9 10 11 10 10 10 9 10 10 9 9 9 8 7 8 8 8 10 12 14 16 17 18
14 14 14 15 16 17 15 19 14 12 11 10 9 9 8 9 9 9 9 8 7 8 8 9 10 11 11 12 12 12 11 11 10 11 10 10 9 9 9 9 8 8 8 8 9 12 14 16 18
14 15 19 19 22 27 17 15 18 16 15 13 12 11 11 10 10 10 9 10 10 11 11 12 12 12 12 13 13 13 13 13 12 12 12 12 11 10 8 8 8 9 9 9 9 9 10 13 16
17 19 28 32 32 27 19 18 18 16 15 14 13 13 13 12 12 13 13 13 13 13 13 13 13 12 13 13 14 14 14 15 15 14 14 14 13 13 12 10 9 9 9 9 10 9 9 10 11
18 20 25 26 28 24 21 23 22 18 16 17 17 17 16 16 17 17 17 16 15 15 16 16 15 14 13 13 13 14 14 14 15 16 16 15 15 14 15 14 13 11 10 9 9 9 9 9 10
21 24 21 24 23 31 28 22 22 19 20 22 21 20 19 20 20 20 20 19 18 17 17 17 17 16 15 14 13 14 15 15 15 16 17 17 17 16 16 17 16 14 12 11 10 9 9 10 10
22 22 27 30 38 32 26 24 25 22 21 23 24 24 23 23 23 22 22 21 20 20 20 19 19 17 16 16 14 13 14 15 16 17 17 18 18 18 17 17 17 16 15 13 11 10 10 10 10
24 24 23 25 26 36 36 31 23 23 22 22 24 26 26 26 25 25 24 23 22 22 22 21 19 18 17 16 15 15 15 17 18 17 17 18 18 19 18 17 17 17 16 14 13 12 11 11 11
24 24 24 34 33 30 35 34 24 23 23 25 28 29 29 28 27 26 25 24 24 23 22 21 20 19 18 17 17 15 16 19 20 19 19 19 18 19 20 20 19 19 18 16 15 14 13 13 13